This is the latest recevied weather packets stored in our database for station/object LA1HSA-13. If no packets are shown the sender has not sent any weather packets the latest 10 day(s).
| Time | Temp. | Humidity | Pressure | Rain* | Wind** | Luminosity | Snow |
|---|---|---|---|---|---|---|---|
| 1777585803 | 8.33° C | 84% | 1025 hPa | 0 mm | - | - | - |
| 1777585203 | 8.89° C | 82% | 1024.9 hPa | 0 mm | - | - | - |
| 1777584603 | 9.44° C | 80% | 1024.9 hPa | 0 mm | - | - | - |
| 1777584003 | 9.44° C | 78% | 1024.9 hPa | 0 mm | - | - | - |
| 1777583404 | 10° C | 76% | 1025 hPa | 0 mm | - | - | - |
| 1777582803 | 10.56° C | 75% | 1025.2 hPa | 0 mm | - | - | - |
| 1777582203 | 10.56° C | 74% | 1025.2 hPa | 0 mm | - | - | - |
| 1777581604 | 11.11° C | 71% | 1025.3 hPa | 0 mm | - | - | - |
| 1777581004 | 11.67° C | 69% | 1025.2 hPa | 0 mm | - | - | - |
| 1777580404 | 11.67° C | 67% | 1025.4 hPa | 0 mm | - | - | - |
| 1777579803 | 12.22° C | 66% | 1025.2 hPa | 0 mm | - | - | - |
| 1777579203 | 12.22° C | 63% | 1025.2 hPa | 0 mm | - | - | - |
| 1777578604 | 12.22° C | 61% | 1025.3 hPa | 0 mm | - | - | - |
| 1777578003 | 12.22° C | 60% | 1025.3 hPa | 0 mm | - | - | - |
| 1777577403 | 13.33° C | 56% | 1025.2 hPa | 0 mm | - | - | - |
| 1777576804 | 13.89° C | 53% | 1024.9 hPa | 0 mm | - | - | - |
| 1777576203 | 14.44° C | 53% | 1025.2 hPa | 0 mm | - | - | - |
| 1777575603 | 15° C | 51% | 1025.2 hPa | 0 mm | - | - | - |
| 1777575004 | 15.56° C | 49% | 1025 hPa | 0 mm | - | - | - |
| 1777574403 | 16.11° C | 47% | 1025.2 hPa | 0 mm | - | - | - |
| 1777573803 | 16.67° C | 45% | 1025.1 hPa | 0 mm | - | - | - |
| 1777573203 | 17.22° C | 44% | 1025 hPa | 0 mm | - | - | - |
| 1777572603 | 17.78° C | 42% | 1025 hPa | 0 mm | - | - | - |
| 1777572003 | 17.78° C | 40% | 1025 hPa | 0 mm | - | - | - |
| 1777571404 | 18.33° C | 39% | 1024.6 hPa | 0 mm | - | - | - |
* Rain latest hour (hover to see other rain measurements)
** Current wind speed in m/s (hover to see current wind gust speed)